Flag for United Kingdom Weather past 2 weeks in Greenwich Borough, England, United Kingdom

Now
54 °F

Scattered showers. Scattered clouds.


Feels Like: 48 °F
Forecast: 48 / 61 °F
Wind: 22 mph from Southwest

Location: Biggin Hill Airport

Current Time: May 6, 2015 at 5:34:00 PM

Latest Report: May 6, 2015 at 5:20 PM


Visibility: N/A

Pressure: 29.71 "Hg

Humidity: 72%

Dew point: 45 °F

Location of Greenwich BoroughLocation

Historic Weather in Greenwich Borough — Graph

°F

Greenwich Borough temperature yesterday

Maximum temperature yesterday: 57 °F (at 5:50 AM)
Minimum temperature yesterday: 52 °F (at 7:50 PM)
Average temperature yesterday: 55 °F

Past Weeks' High & Low Weather Summary

 TemperatureHumidityPressure
High63 °F (May 3, 2:50 PM)94% (Apr 25, 8:50 AM)30.51 "Hg (Apr 25, 8:50 AM)
Low36 °F (Apr 27, 6:20 AM)32% (Apr 28, 2:20 PM)29.18 "Hg (May 5, 5:50 AM)
Average51 °F67%29.84 "Hg
* Reported Apr 21 4:20 PM — May 6 4:20 PM, Greenwich Borough, Weather by CustomWeather, © 2015

Note: Actual official high and low records may vary slightly from our data, if they occured in-between our weather recording intervals... More about our weather records

Advertising

Greenwich Borough weather history for previous 24 hours

 ConditionsComfort  
Time TempWeatherWind HumidityBarometerVisibility
4:20 PM
Wed, May 6
54 °FScattered showers. Scattered clouds.18 mph72%29.68 "HgN/A
3:50 PM54 °FScattered showers. Scattered clouds.23 mph67%29.65 "HgN/A
3:20 PM54 °FScattered showers. Scattered clouds.21 mph67%29.65 "HgN/A
2:50 PM54 °FScattered showers. Partly sunny.23 mph67%29.65 "HgN/A
2:20 PM54 °FSprinkles. Partly sunny.23 mph72%29.65 "HgN/A
1:50 PM52 °FScattered showers. Partly sunny.24 mph77%29.62 "HgN/A
1:20 PM50 °FRain showers. Partly sunny.24 mph76%29.62 "HgN/A
12:50 PM52 °FSprinkles. Partly sunny.25 mph72%29.62 "Hg6 mi
11:50 AM52 °FScattered showers. Scattered clouds.22 mph72%29.59 "HgN/A
11:20 AM50 °FScattered showers. Scattered clouds.21 mph82%29.62 "HgN/A
10:50 AM50 °FScattered showers. Passing clouds.24 mph82%29.59 "HgN/A
10:20 AM50 °FScattered showers. Scattered clouds.23 mph76%29.59 "HgN/A
9:50 AM52 °FScattered showers. Scattered clouds.21 mph72%29.59 "HgN/A
9:20 AM50 °FRain showers. Partly sunny.22 mph76%29.59 "Hg6 mi
8:50 AM48 °FScattered clouds.18 mph87%29.59 "HgN/A
8:20 AM46 °FScattered showers. Passing clouds.15 mph82%29.62 "HgN/A
7:50 AM46 °FScattered showers. Scattered clouds.16 mph82%29.62 "HgN/A
7:20 AM48 °FRain showers. Scattered clouds.17 mph82%29.59 "HgN/A
6:50 AM48 °FScattered showers. Scattered clouds.16 mph82%29.59 "HgN/A
8:20 PM
Tue, May 5
52 °FScattered clouds.25 mph67%29.59 "HgN/A
7:50 PM52 °FScattered showers. Scattered clouds.21 mph67%29.59 "HgN/A
7:20 PM54 °FScattered showers. Scattered clouds.29 mph63%29.56 "HgN/A
6:50 PM54 °FScattered showers. Scattered clouds.24 mph63%29.56 "HgN/A
6:20 PM54 °FScattered clouds.22 mph58%29.56 "HgN/A
5:50 PM55 °FScattered clouds.25 mph55%29.56 "HgN/A
5:20 PM54 °FScattered clouds.29 mph58%29.56 "HgN/A
Weather by CustomWeather, © 2015

See weather overviewHow to use our weather pages